THOR ABLESTAR DEB, 545

Orbit data source: Space-Track

THOR ABLESTAR DEB, 545 is space debris in LEO originally from a launch on Thu, 29 Jun 1961 UTC launched from the Air Force Eastern Test Range (AFETR). Debris objects in space refer to the collection of defunct objects orbiting the Earth. Examples of debris include non-operational satellites, rocket bodies, and fragments generated from explosions, collisions, or faulty payload assembly.

Loading next visibility...
Identifier
545, 1961-015GE
Orbit
LEO
Country
Flag of USUS
Related business
Manufacturer
Unknown
Mission
Spacecraft
Bus & Motor
Unknown
Mass
Unknown
Launch date (UTC)
1961-06-29 (65 years ago)
Launch vehicle
Unknown
Launch site
Air Force Eastern Test Range (AFETR)
Object type
Payload
Rocket body
Debris
Shape & HBR
Unknown shape, 0.1 m
Radar Cross Section
Small (<0.1 m²)

Expand to show TLE details & history
Last TLE update: 15 hours ago

TLE from 15 hours ago
0 THOR ABLESTAR DEB
1   545U 61015GE  26131.03540939  .00000331  00000-0  41190-3 0  9998
2   545  67.2334   0.8291 0152296  74.8724 286.9137 13.71071960225198
Epoch: 2026-05-11T00:50Z
TLE epoch observation values (Epoch: 2026-05-11T00:50:59.371Z)
Latitude
-0.00005°
Longitude
119.25178°
Altitude
966.715 km
Speed
7.384 km/s
True Right ascension
00h 03m 18s
True Declination
0° 00' 00"
Sunlit
Object was in daylight at epoch
Visualization orbit readout
Latitude
Unknown
Longitude
Unknown
Altitude
Unknown
Speed
Unknown
Apparent Right ascension
Unknown
Apparent Declination
Unknown
Sunlit
N/A
Visualization observer readout
Local Sidereal Time
23:43:08
Azimuth
Unknown
Elevation
Unknown
Doppler factor
Unknown
Orbital elements
Apogee altitude
1,106.361 km
Perigee altitude
881.809 km
Semi-major axis
7,372.222 km
Eccentricity
0.01523
Inclination
67.2334°
RAAN
0.8291°
Arg. of periapsis
74.8724°
True anomaly
285.23495°
Mean anomaly
286.9137°
Eccentric anomaly
286.07523°
Mean motion
3.42883 °/min
Orbital period
104.99 mins
BSTAR
0.0004119
Loading maneuver chart data...
Computing Atmospheric mass density...

Documentation

Showing up to 5 results
|